Temperature
17 16 16 16 16 16 16 16 16 15 15 15 15 15 15 15 15 15 15 15 15 15 15 15 15 15 15 15 15 15 15 15 15 15 15 15 15 14
16 16 16 16 16 16 16 16 16 16 15 15 15 15 15 15 15 15 15 15 15 15 14 14 15 15 15 14 14 14 14 14 14 14 14 14 14 14
16 16 16 16 16 16 16 16 15 15 15 15 15 15 15 15 15 15 15 14 14 14 14 14 14 14 14 14 14 14 14 14 14 14 14 14 14 14
16 16 15 15 15 15 15 15 15 15 15 15 15 15 15 14 14 14 14 14 14 14 14 14 14 14 14 14 14 14 14 14 14 14 14 14 14 14
15 15 15 15 15 15 15 15 15 15 15 15 14 14 14 14 14 14 14 14 14 14 14 14 14 14 14 14 14 14 14 14 14 14 14 13 13 13
15 15 15 15 15 15 15 15 14 14 14 14 14 14 14 14 14 14 14 14 14 14 14 13 13 14 14 14 14 13 13 13 13 13 13 13 13 13
15 15 15 15 14 14 14 14 14 14 14 14 14 14 13 13 13 13 13 13 13 13 13 13 13 13 13 13 13 13 13 13 13 13 13 13 13 13
15 15 14 14 14 14 14 14 14 14 14 13 13 13 13 13 13 13 13 13 13 13 13 13 13 13 13 13 13 13 13 13 13 13 13 13 13 13
15 14 14 14 14 14 14 14 13 13 13 13 13 13 13 13 13 13 13 13 13 13 12 12 13 13 13 13 13 13 12 12 12 12 12 12 12 12
14 14 14 14 14 14 14 13 13 13 13 13 13 13 12 12 12 12 12 12 12 12 12 12 12 12 12 12 12 12 12 12 12 12 12 12 12 12
14 14 14 14 13 13 13 13 13 13 13 12 12 12 12 12 12 12 12 12 12 12 12 12 12 12 12 12 12 12 12 12 12 12 12 12 12 12
14 13 13 13 13 13 13 13 13 13 12 12 12 12 12 12 12 12 12 12 11 11 11 11 11 11 11 12 12 12 12 11 11 11 11 11 11 11
13 13 13 13 13 13 13 13 12 12 12 12 12 12 12 12 12 12 12 11 11 11 11 11 11 11 11 11 11 11 11 11 11 11 11 11 11 11
13 13 13 13 13 13 12 12 12 12 12 12 12 12 12 12 12 12 11 11 11 11 11 11 11 11 11 11 11 11 11 11 11 11 11 11 11 11
13 13 13 12 12 12 12 12 12 12 12 12 12 12 12 11 11 11 11 11 11 11 11 11 11 10 10 10 10 11 11 11 11 11 11 10 10 10
13 12 12 12 12 12 12 12 12 11 11 11 11 11 11 11 11 11 11 11 11 11 11 11 10 10 10 10 10 10 11 10 11 11 10 10 10 10
13 12 12 12 12 12 12 12 11 11 11 11 11 11 11 11 11 11 11 11 10 10 10 11 10 10 10 10 10 10 10 10 10 10 10 10 10 10
12 12 12 12 12 11 11 11 11 11 11 11 11 11 11 11 10 10 10 10 10 10 10 10 10 10 10 10 10 10 10 10 10 10 10 10 10 10
12 12 12 12 11 11 11 11 11 11 11 11 11 11 11 11 10 10 10 10 10 10 10 10 10 10 10 10 10 10 10 10 10 10 10 10 10 9
12 12 12 11 11 11 11 11 11 11 11 10 10 10 10 10 10 10 10 10 10 10 10 10 10 10 10 10 10 10 10 10 10 10 10 10 9 9
12 12 11 11 11 11 11 11 11 11 10 10 10 10 10 10 10 10 10 10 10 10 10 10 10 10 10 10 10 10 10 10 10 10 10 9 9 9
11 11 11 11 11 11 11 11 10 10 10 10 10 10 10 10 10 10 10 10 10 10 10 10 10 10 10 10 10 10 10 10 10 9 9 9 9 9
11 11 11 11 11 11 10 10 10 10 10 10 10 10 10 10 10 9 9 9 9 9 10 10 10 10 10 10 9 9 10 9 9 9 9 9 9 9
Wind_Speed
1 1 1 0 0 1 2 3 4 2 2 2 2 2 2 2 5 5 5 5 6 5 5 6 6 7 8 8 7 7 7 7 7 7 6 6 6 6
1 1 1 0 1 0 1 1 2 3 2 2 3 2 1 2 4 5 6 7 7 7 6 6 6 7 8 9 8 7 8 8 8 8 8 7 7 6
0 1 0 0 0 1 1 1 1 2 2 2 1 1 1 1 1 3 4 5 6 8 8 7 7 7 7 8 9 9 8 8 8 9 9 8 7 7
1 0 0 0 1 1 0 0 1 1 3 1 2 1 1 2 2 2 2 3 4 6 8 8 7 7 7 8 8 9 9 9 9 9 9 9 9 8
1 1 1 1 0 1 0 0 0 0 1 2 1 1 1 1 1 2 1 1 3 4 6 7 7 7 8 8 9 9 9 9 9 10 10 9 9 9
1 1 1 2 2 2 1 1 1 1 1 1 1 1 1 1 0 1 2 2 3 3 3 4 7 7 8 8 8 8 8 8 8 9 10 9 9 9
1 1 2 2 3 2 2 2 1 1 1 1 1 1 1 1 1 1 2 2 3 2 2 3 3 3 5 7 8 9 8 8 8 8 9 10 10 10
2 2 2 2 1 2 2 3 3 3 3 2 2 2 3 3 2 2 2 1 3 2 1 3 2 3 4 5 7 8 8 8 8 8 8 8 9 10
4 3 3 2 2 2 2 2 2 4 4 4 4 5 4 4 3 3 3 3 4 3 1 3 2 4 4 6 8 8 7 8 7 8 8 8 9 10
4 4 3 3 2 2 2 2 2 3 4 3 4 5 5 5 5 5 5 4 3 2 2 3 3 3 4 4 7 7 7 7 7 7 7 8 8 9
3 3 3 3 3 3 2 2 3 4 4 4 4 5 6 5 4 2 1 1 2 3 2 2 2 2 2 3 5 7 7 7 7 8 8 7 8 7
2 2 4 4 4 3 3 3 3 4 4 4 4 5 5 4 4 4 4 3 2 3 3 2 2 0 2 3 3 3 4 6 7 8 8 7 6 4
3 3 3 5 5 4 4 4 6 4 3 3 3 4 4 3 3 3 4 5 4 4 4 3 2 2 2 3 3 2 2 2 3 4 6 7 7 5
4 4 5 6 6 5 4 5 5 3 1 2 3 4 4 4 4 4 4 5 5 6 5 4 3 3 3 2 3 2 2 2 2 2 3 4 4 6
5 6 6 7 5 4 6 6 3 2 2 3 4 5 4 4 3 3 3 3 4 5 4 4 4 3 3 3 3 3 3 3 2 2 2 2 2 2
4 4 5 5 4 4 4 3 3 4 4 4 5 4 3 3 3 3 2 2 2 4 4 4 5 5 4 4 3 4 3 3 2 2 2 2 2 3
3 1 1 1 2 3 3 3 3 3 4 4 4 4 3 3 3 2 2 2 2 4 4 3 3 4 5 4 4 4 4 3 3 2 2 2 3 3
3 2 4 4 5 5 5 4 3 4 5 4 4 4 4 4 4 3 3 3 4 4 4 3 2 1 2 3 5 5 4 3 3 2 2 3 3 3
3 4 5 6 5 5 5 5 5 5 4 5 5 5 5 4 3 4 3 3 4 5 5 4 3 3 3 5 4 4 4 3 2 2 2 3 4 4
4 5 6 6 6 5 5 5 5 5 4 5 5 5 5 4 4 4 4 4 4 4 4 3 4 5 6 6 4 3 5 4 3 3 3 2 2 2
5 5 6 6 6 6 5 5 5 5 5 4 5 5 5 4 4 4 4 5 4 3 4 5 6 6 3 1 1 3 3 4 5 4 3 2 1 1
5 6 6 6 6 6 5 5 4 5 5 5 5 5 5 4 5 5 4 4 4 4 5 4 2 2 2 3 3 3 3 2 2 2 3 4 4 4
6 6 5 6 6 5 5 6 6 5 5 5 5 5 5 5 4 4 4 4 4 4 3 2 1 1 2 3 3 2 3 3 1 1 2 3 4 5
Wind_Direction
154 126 110 304 32 179 155 153 158 180 256 264 269 281 264 220 198 196 208 217 223 223 228 236 241 245 242 233 234 232 227 225 228 228 227 231 235 236
162 112 70 341 350 4 136 148 156 164 207 249 242 249 248 241 219 210 218 229 229 229 235 240 243 248 243 233 232 233 230 229 230 229 229 230 231 233
293 147 195 320 356 343 18 102 125 142 176 271 274 287 265 272 280 237 230 221 230 233 233 240 245 247 246 241 237 235 235 232 228 227 228 228 227 227
240 147 254 32 38 357 31 59 135 157 165 231 306 325 280 253 253 247 242 229 231 243 240 239 243 246 247 247 246 240 236 232 229 229 228 227 227 229
207 196 226 136 316 305 353 26 240 101 136 169 272 294 294 294 321 303 293 288 259 263 250 242 243 247 252 250 246 244 240 235 233 230 228 226 226 229
215 215 221 187 206 216 218 222 186 94 95 123 277 300 290 288 83 304 308 290 273 278 266 253 249 249 252 252 245 243 244 240 235 232 229 227 228 230
257 245 238 211 198 210 212 197 163 154 154 167 259 296 288 300 264 252 267 284 281 269 280 271 263 253 253 253 246 242 242 244 240 238 237 234 233 235
234 253 263 254 248 243 223 200 185 188 204 210 238 246 258 253 242 233 243 277 283 271 237 272 247 254 255 243 244 244 241 241 240 241 243 241 240 242
225 236 254 257 246 236 255 262 249 237 217 204 221 241 246 245 235 244 235 226 241 248 214 268 268 262 264 252 242 245 245 242 244 245 245 246 248 247
227 220 224 243 245 220 216 247 267 267 252 236 226 239 241 234 220 220 225 239 269 264 192 238 264 263 274 264 245 243 247 247 245 246 250 252 255 251
244 221 210 218 245 216 192 232 280 293 295 280 266 269 267 254 225 199 216 199 270 273 229 201 251 268 274 266 254 249 252 255 252 250 252 256 256 252
257 239 225 224 232 205 194 208 243 270 285 302 302 301 296 285 252 211 203 208 236 261 242 198 227 238 297 278 264 255 254 261 257 251 251 252 249 237
229 239 244 234 230 224 213 215 234 244 256 267 284 294 296 287 271 244 211 199 210 238 228 187 207 203 216 274 292 275 251 260 259 254 254 250 242 224
223 230 237 237 236 239 242 243 247 248 253 269 278 279 276 272 266 256 240 228 225 230 231 195 199 202 209 252 275 284 272 260 251 252 253 254 248 240
227 234 246 245 243 248 251 248 233 222 236 259 264 263 258 258 266 274 275 267 275 270 254 219 203 208 206 226 246 261 277 279 257 241 240 232 239 231
239 249 262 255 248 254 261 248 227 225 230 242 254 263 273 273 265 252 253 260 281 293 291 252 222 206 221 231 230 254 250 249 258 248 226 240 251 232
211 210 238 252 251 260 269 263 250 246 248 249 248 258 267 269 265 251 232 229 238 263 285 290 266 227 215 213 231 245 247 252 243 232 224 244 258 251
182 212 228 232 235 240 245 253 247 243 245 242 243 244 247 250 257 256 232 225 238 249 254 257 252 313 318 276 229 230 241 248 249 233 222 222 260 267
196 224 229 232 235 238 240 241 244 242 238 236 239 242 242 244 247 249 244 240 245 250 251 233 208 198 234 266 272 222 220 240 239 243 240 221 235 248
220 228 233 232 231 233 239 240 245 246 240 239 240 243 239 239 243 248 246 242 245 256 262 244 220 213 220 234 242 264 233 215 219 229 242 244 262 276
237 237 236 232 232 232 233 234 236 239 239 236 239 239 239 237 242 243 244 244 245 250 251 250 247 227 208 147 236 275 275 237 215 209 206 197 234 265
244 245 244 236 232 232 229 229 235 239 239 237 235 234 234 237 240 241 241 245 244 245 253 260 251 178 170 196 228 248 271 293 277 226 206 196 187 203
245 244 245 241 235 231 229 228 230 239 240 238 235 234 230 234 236 232 237 243 245 245 251 264 258 201 212 208 219 241 249 254 255 283 298 293 240 229
Height
1526 1526 1526 1526 1526 1526 1526 1526 1526 1525 1525 1526 1526 1526 1526 1526 1525 1525 1526 1525 1525 1525 1524 1524 1524 1524 1524 1524 1524 1524 1525 1525 1526 1526 1526 1526 1527 1527
1524 1524 1524 1524 1524 1524 1524 1524 1524 1524 1524 1524 1524 1525 1524 1524 1524 1524 1524 1523 1523 1523 1522 1522 1522 1521 1521 1521 1522 1522 1522 1522 1523 1523 1523 1524 1524 1524
1523 1522 1522 1522 1522 1522 1522 1522 1522 1522 1522 1522 1523 1523 1522 1522 1522 1521 1521 1521 1521 1521 1520 1520 1519 1519 1518 1519 1519 1519 1519 1519 1520 1520 1520 1521 1521 1521
1521 1521 1520 1521 1520 1520 1520 1520 1520 1520 1520 1520 1520 1520 1520 1520 1519 1519 1519 1519 1518 1518 1517 1517 1517 1516 1516 1516 1516 1516 1516 1516 1516 1517 1517 1517 1518 1518
1519 1519 1519 1519 1519 1519 1518 1518 1518 1518 1518 1518 1517 1518 1517 1517 1517 1517 1516 1516 1516 1515 1515 1514 1514 1514 1513 1513 1513 1513 1513 1513 1513 1513 1513 1514 1514 1514
1518 1518 1517 1517 1517 1517 1517 1516 1516 1516 1516 1516 1515 1515 1515 1515 1514 1514 1513 1513 1512 1512 1512 1511 1511 1511 1510 1510 1510 1510 1510 1509 1509 1509 1510 1510 1510 1511
1515 1515 1515 1515 1515 1515 1515 1515 1514 1514 1514 1513 1513 1512 1512 1512 1511 1511 1510 1509 1509 1509 1508 1508 1508 1507 1507 1507 1506 1506 1506 1506 1506 1506 1506 1506 1506 1506
1512 1513 1513 1513 1513 1513 1512 1512 1512 1512 1511 1511 1510 1510 1509 1509 1509 1508 1507 1506 1505 1506 1505 1504 1504 1504 1503 1503 1503 1503 1502 1502 1502 1502 1502 1502 1502 1502
1510 1510 1510 1510 1510 1510 1510 1510 1509 1509 1509 1509 1508 1507 1507 1506 1506 1505 1504 1503 1502 1502 1501 1500 1500 1500 1500 1499 1499 1499 1499 1498 1498 1498 1498 1498 1498 1498
1507 1507 1508 1508 1508 1507 1507 1507 1506 1506 1506 1505 1505 1504 1504 1503 1502 1502 1501 1500 1499 1499 1498 1497 1496 1496 1496 1496 1496 1495 1495 1495 1494 1494 1494 1494 1494 1493
1505 1505 1505 1505 1505 1505 1504 1504 1503 1503 1503 1502 1502 1501 1500 1500 1499 1498 1497 1496 1495 1494 1495 1494 1493 1492 1492 1492 1492 1492 1492 1491 1491 1491 1490 1490 1490 1490
1502 1502 1502 1502 1502 1502 1501 1500 1500 1499 1499 1499 1498 1498 1497 1496 1496 1495 1494 1493 1491 1491 1491 1491 1490 1489 1488 1488 1488 1488 1488 1487 1487 1487 1487 1486 1486 1485
1498 1498 1499 1499 1499 1499 1498 1497 1497 1496 1496 1495 1495 1494 1493 1493 1492 1491 1490 1490 1489 1488 1488 1488 1487 1486 1486 1485 1484 1485 1484 1484 1483 1483 1483 1482 1482 1482
1495 1495 1495 1496 1495 1495 1494 1494 1494 1493 1493 1492 1491 1490 1489 1489 1488 1488 1487 1487 1486 1485 1485 1485 1484 1483 1483 1482 1481 1481 1481 1480 1480 1479 1479 1478 1478 1478
1492 1492 1492 1492 1492 1491 1491 1490 1490 1489 1489 1488 1487 1486 1486 1485 1485 1484 1483 1483 1482 1482 1481 1481 1480 1480 1480 1479 1478 1477 1477 1477 1476 1476 1475 1475 1474 1474
1488 1488 1488 1488 1488 1488 1487 1487 1486 1486 1485 1484 1483 1483 1482 1482 1481 1480 1480 1479 1478 1478 1478 1478 1477 1477 1476 1476 1475 1474 1474 1473 1473 1472 1472 1471 1471 1470
1484 1484 1484 1483 1483 1483 1483 1482 1482 1482 1481 1480 1479 1479 1478 1478 1477 1477 1476 1475 1474 1473 1473 1474 1474 1474 1473 1473 1472 1471 1471 1470 1470 1469 1469 1468 1468 1467
1480 1479 1479 1479 1479 1478 1478 1478 1477 1477 1477 1476 1476 1475 1475 1474 1473 1473 1473 1472 1471 1470 1470 1470 1470 1470 1470 1469 1469 1468 1467 1466 1466 1466 1465 1465 1464 1464
1475 1474 1474 1474 1474 1474 1473 1473 1473 1472 1472 1472 1471 1471 1471 1470 1469 1469 1468 1468 1467 1466 1466 1466 1466 1466 1465 1464 1464 1465 1464 1463 1463 1463 1462 1462 1461 1461
1470 1470 1469 1470 1469 1469 1469 1468 1468 1468 1467 1467 1467 1467 1466 1466 1465 1465 1464 1464 1463 1462 1462 1462 1462 1462 1462 1461 1461 1460 1461 1460 1460 1459 1459 1459 1458 1458
1466 1465 1465 1465 1465 1464 1464 1464 1463 1463 1462 1462 1462 1462 1462 1461 1461 1460 1460 1459 1459 1458 1457 1457 1458 1458 1458 1458 1458 1457 1457 1457 1457 1457 1456 1456 1455 1455
1461 1460 1460 1460 1460 1460 1459 1459 1458 1458 1457 1457 1457 1457 1457 1456 1456 1455 1455 1455 1454 1454 1454 1454 1454 1454 1454 1454 1454 1454 1454 1454 1454 1454 1454 1454 1453 1452
1457 1456 1455 1455 1455 1455 1454 1454 1453 1453 1453 1452 1452 1452 1452 1451 1451 1451 1450 1450 1450 1450 1450 1450 1450 1450 1450 1451 1451 1450 1451 1451 1451 1451 1451 1451 1451 1451